Regional Weather Roundup
Issued by NWS

Home | Current Version | Previous Version | Text Only | Print | Product List | Glossary Off
Versions: 1 2 3 4 5 6 7 8 9 10 11 12 13 14 15 16 17 18 19 20 21 22 23 24 25 26 27 28 29 30 31 32 33 34 35 36 37 38 39 40 41 42 43 44 45 46 47 48 49 50

000
ASUS43 KOAX 020410
RWRNE

WEATHER ROUNDUP FOR NEBRASKA
NATIONAL WEATHER SERVICE OMAHA NE
1100 PM CDT FRI AUG 01 2014

NOTES: SATELLITE DATA IS BEING USED TO AUGMENT CLOUD COVER ABOVE
       12000 FEET.
       "FAIR" INDICATES FEW OR NO CLOUDS BELOW 12,000 FEET WITH NO
       SIGNIFICANT WEATHER AND/OR OBSTRUCTIONS TO VISIBILITY.

  * THESE STATIONS DO NOT REPORT WEATHER SUCH AS RAIN...SNOW OR FOG.

NEZ001>004-019>022-054>056-020500-
NEBRASKA PANHANDLE

CITY           SKY/WX    TMP DP  RH WIND       PRES   REMARKS
SCOTTSBLUFF    CLEAR     69  53  56 CALM      30.16R
ALLIANCE       CLOUDY    71  45  39 SE7       30.15R
CHADRON        PTCLDY    65  46  50 W6        30.10R
KIMBALL        CLEAR     64  53  68 CALM      30.22S
SIDNEY         CLEAR     63  50  62 S8        30.21R
$$

NEZ057>060-069>072-079>082-020500-
SOUTHWEST NEBRASKA

CITY           SKY/WX    TMP DP  RH WIND       PRES   REMARKS
NORTH PLATTE   CLEAR     64  60  87 E6        30.14R
IMPERIAL       CLEAR     67  55  65 SE8       30.16R
LEXINGTON      CLEAR     71  61  68 SE7       30.13S
MCCOOK         PTCLDY    71  58  63 SE6       30.14R
OGALLALA       CLEAR     69  53  57 S6        30.15R
$$

NEZ005>010-023>029-035>040-094-020500-
NORTH CENTRAL NEBRASKA

CITY           SKY/WX    TMP DP  RH WIND       PRES   REMARKS
VALENTINE      CLOUDY    73  61  65 S15       30.11R
BROKEN BOW     CLEAR     66  59  78 SE3       30.14R
O`NEILL        MOCLDY    70  59  67 SE6       30.12S
ORD            CLEAR     67  58  72 SW7       30.12R
THEDFORD       PTCLDY    76  59  53 S13       30.13R
$$

NEZ041-046>049-061>064-073>077-083>087-020500-
SOUTH CENTRAL NEBRASKA

CITY           SKY/WX    TMP DP  RH WIND       PRES   REMARKS
GRAND ISLAND   CLEAR     66  60  81 E5        30.13R
AURORA         CLEAR     66  64  93 NE5       30.13R
HASTINGS       CLEAR     67  58  72 CALM      30.13R
HEBRON         CLEAR     66  61  82 CALM      30.10R
HOLDREGE       CLEAR     64  59  83 SE7       30.13S
KEARNEY *      CLEAR     64  57  77 E7        30.13S
YORK           PTCLDY    66  64  94 E3        30.12S
$$

NEZ011>018-030>034-042>045-020500-
NORTHEAST NEBRASKA

CITY           SKY/WX    TMP DP  RH WIND       PRES   REMARKS
NORFOLK        CLEAR     66  61  84 CALM      30.12R
ALBION         CLEAR     63  60  88 CALM      30.13R
BLAIR          CLEAR     69  61  74 E5        30.11R
COLUMBUS *     CLEAR     63  57  82 CALM      30.13R
FREMONT        PTCLDY    71  63  76 CALM      30.12R
TEKAMAH        CLEAR     65  61  87 CALM      30.10R
WAYNE          CLEAR     63  60  91 CALM      30.13R
$$

NEZ050>053-065>068-078-088>093-020500-
SOUTHEAST NEBRASKA

CITY           SKY/WX    TMP DP  RH WIND       PRES   REMARKS
LINCOLN        CLEAR     67  58  72 CALM      30.11R
OMAHA EPPLEY   CLEAR     69  63  81 CALM      30.10R
BEATRICE       CLEAR     70  63  78 E5        30.10R
FALLS CITY     CLEAR     70  64  81 E5        30.08R
NEBRASKA CITY  CLEAR     70  63  77 CALM      30.11R
PLATTSMOUTH    CLEAR     70  62  76 E3        30.11S
$$

NEZ044-045-051>053-067-020500-
OMAHA AREA

CITY           SKY/WX    TMP DP  RH WIND       PRES   REMARKS
OMAHA EPPLEY   CLEAR     69  63  81 CALM      30.10R
BLAIR          CLEAR     69  61  74 E5        30.11R
FREMONT        PTCLDY    71  63  76 CALM      30.12R
MILLARD        CLEAR     70  64  81 CALM      30.10R
OFFUTT AFB     CLEAR     69  68  98 NE3       30.09R
PLATTSMOUTH    CLEAR     70  62  76 E3        30.11S
WAHOO          FAIR      69  64  83 CALM      30.11R
$$


USA.gov is the U.S. government's official web portal to all federal, state and local government web resources and services.